| time (UTC) | temp C | wind direction | speed KPH | gust KPH | rain 1hr cm | rain 24hr cm | rain mn cm | humidity % | barometer mb |
| 20260504081534 | 9 | 22 | 19.3 | 32.2 | 0.00 | 0.00 | 0.00 | 53 | 1015.0 |
| 20260504044540 | 13 | 19 | 25.7 | 35.4 | 0.00 | 0.00 | 0.00 | 38 | 1009.0 |
| 20260504043043 | 14 | 15 | 25.7 | 33.8 | 0.00 | 0.00 | 0.00 | 38 | 1008.6 |
| 20260504041536 | 14 | 17 | 27.4 | 37.0 | 0.00 | 0.00 | 0.00 | 37 | 1008.2 |
| 20260504040035 | 15 | 17 | 25.7 | 35.4 | 0.00 | 0.00 | 0.00 | 37 | 1008.0 |
| 20260504034552 | 15 | 32 | 25.7 | 37.0 | 0.00 | 0.00 | 0.00 | 37 | 1007.9 |
| 20260504033042 | 15 | 26 | 29.0 | 38.6 | 0.00 | 0.00 | 0.00 | 36 | 1007.5 |
| 20260504031536 | 16 | 23 | 29.0 | 37.0 | 0.00 | 0.00 | 0.00 | 34 | 1007.2 |
| 20260504030034 | 16 | 28 | 20.9 | 27.4 | 0.00 | 0.00 | 0.00 | 30 | 1007.0 |
| 20260504024541 | 15 | 32 | 11.3 | 14.5 | 0.00 | 0.00 | 0.00 | 29 | 1006.7 |
| 20260504023040 | 17 | 26 | 11.3 | 16.1 | 0.00 | 0.00 | 0.00 | 26 | 1006.8 |
| 20260504021537 | 19 | 20 | 14.5 | 22.5 | 0.00 | 0.00 | 0.00 | 24 | 1006.7 |
| 20260504020051 | 20 | 360 | 19.3 | 27.4 | 0.00 | 0.00 | 0.00 | 23 | 1006.8 |
| 20260504014551 | 21 | 352 | 17.7 | 24.1 | 0.00 | 0.00 | 0.00 | 22 | 1006.8 |
| 20260504013041 | 22 | 348 | 14.5 | 25.7 | 0.00 | 0.00 | 0.00 | 21 | 1006.7 |
| 20260504011542 | 22 | 339 | 19.3 | 27.4 | 0.00 | 0.00 | 0.00 | 20 | 1006.8 |
| 20260504010037 | 22 | 5 | 19.3 | 29.0 | 0.00 | 0.00 | 0.00 | 19 | 1006.8 |
| 20260504004535 | 23 | 350 | 19.3 | 27.4 | 0.00 | 0.00 | 0.00 | 19 | 1006.9 |
| 20260504003041 | 23 | 339 | 19.3 | 30.6 | 0.00 | 0.00 | 0.00 | 19 | 1007.0 |
| 20260504001542 | 23 | 344 | 17.7 | 29.0 | 0.00 | 0.00 | 0.00 | 18 | 1007.0 |
| 20260504000045 | 23 | 343 | 12.9 | 24.1 | 0.00 | 0.00 | 0.00 | 17 | 1007.1 |
| 20260503234534 | 23 | 326 | 14.5 | 22.5 | 0.00 | 0.00 | 0.00 | 17 | 1007.2 |
| 20260503233041 | 24 | 281 | 16.1 | 32.2 | 0.00 | 0.00 | 0.00 | 17 | 1007.4 |
| 20260503231541 | 23 | 297 | 11.3 | 24.1 | 0.00 | 0.00 | 0.00 | 17 | 1007.4 |
| 20260503230049 | 24 | 271 | 16.1 | 29.0 | 0.00 | 0.00 | 0.00 | 18 | 1007.5 |
| 20260503224537 | 24 | 232 | 14.5 | 27.4 | 0.00 | 0.00 | 0.00 | 17 | 1007.7 |
| 20260503223042 | 23 | 265 | 8.0 | 24.1 | 0.00 | 0.00 | 0.00 | 17 | 1007.9 |
| 20260503221534 | 23 | 279 | 16.1 | 32.2 | 0.00 | 0.00 | 0.00 | 17 | 1008.1 |
| 20260503220040 | 23 | 269 | 16.1 | 25.7 | 0.00 | 0.00 | 0.00 | 17 | 1008.2 |
| 20260503214541 | 23 | 283 | 20.9 | 32.2 | 0.00 | 0.00 | 0.00 | 17 | 1008.2 |
| 20260503213037 | 23 | 340 | 11.3 | 46.7 | 0.00 | 0.00 | 0.00 | 18 | 1008.7 |
| 20260503211603 | 23 | 290 | 12.9 | 30.6 | 0.00 | 0.00 | 0.00 | 19 | 1009.0 |
| 20260503210040 | 23 | 279 | 17.7 | 27.4 | 0.00 | 0.00 | 0.00 | 18 | 1009.1 |
| 20260503204540 | 22 | 279 | 12.9 | 29.0 | 0.00 | 0.00 | 0.00 | 18 | 1009.4 |
| 20260503203048 | 22 | 297 | 11.3 | 27.4 | 0.00 | 0.00 | 0.00 | 20 | 1009.7 |
| 20260503201541 | 22 | 329 | 12.9 | 25.7 | 0.00 | 0.00 | 0.00 | 20 | 1009.9 |
| 20260503200054 | 22 | 318 | 12.9 | 30.6 | 0.00 | 0.00 | 0.00 | 20 | 1010.0 |
| 20260503194544 | 21 | 313 | 8.0 | 20.9 | 0.00 | 0.00 | 0.00 | 21 | 1010.3 |
| 20260503193045 | 22 | 304 | 17.7 | 27.4 | 0.00 | 0.00 | 0.00 | 20 | 1010.5 |
| 20260503191542 | 21 | 289 | 14.5 | 30.6 | 0.00 | 0.00 | 0.00 | 21 | 1010.8 |
| 20260503190035 | 21 | 264 | 16.1 | 24.1 | 0.00 | 0.00 | 0.00 | 21 | 1010.9 |
| 20260503184543 | 21 | 293 | 8.0 | 25.7 | 0.00 | 0.00 | 0.00 | 23 | 1011.0 |
| 20260503183041 | 21 | 279 | 17.7 | 27.4 | 0.00 | 0.00 | 0.00 | 22 | 1011.2 |
| 20260503181547 | 21 | 271 | 16.1 | 29.0 | 0.00 | 0.00 | 0.00 | 22 | 1011.2 |
| 20260503180051 | 21 | 281 | 8.0 | 22.5 | 0.00 | 0.00 | 0.00 | 23 | 1011.6 |
| 20260503174547 | 20 | 319 | 16.1 | 27.4 | 0.00 | 0.00 | 0.00 | 25 | 1011.7 |
| 20260503173052 | 20 | 325 | 11.3 | 22.5 | 0.00 | 0.00 | 0.00 | 25 | 1011.9 |
| 20260503171535 | 19 | 268 | 12.9 | 22.5 | 0.00 | 0.00 | 0.00 | 28 | 1012.0 |